Lid_Strength_Index
3 3 3 3 3 2 2 2 1 2 1 1 1 1 1 1 1 -0 -0 -2 2 3 3 3 3 5 6 5 7 5 6 5 7 9 10 10 11 10 13 12 12 12 13 14 12 14 14 6 6 10 8 6 5 5
3 3 3 4 3 2 2 2 2 2 1 1 1 1 1 1 1 1 0 -2 -2 2 3 1 1 1 2 2 3 4 6 6 6 9 8 8 10 9 11 15 9 13 12 13 11 10 6 5 6 4 4 5 5 5
4 4 3 3 4 2 2 2 1 2 2 1 1 1 1 1 1 1 0 -1 -0 3 3 3 3 1 0 1 -0 6 4 4 4 3 6 8 12 7 12 11 10 9 7 11 10 6 6 6 4 4 5 5 5 5
4 4 3 3 4 2 2 2 2 2 2 1 1 1 1 1 1 1 0 -1 1 2 6 5 0 2 0 -0 1 0 2 2 2 4 6 8 10 7 10 9 11 9 9 10 10 7 7 6 5 5 5 4 4 4
4 4 4 3 4 2 2 2 2 2 2 1 1 1 1 1 1 1 -1 -2 -1 3 6 5 2 1 0 0 1 1 2 3 3 6 6 7 5 6 6 8 11 9 11 11 12 9 9 8 5 4 5 5 5 6
4 4 4 4 4 2 2 2 2 2 2 1 1 1 1 0 1 1 3 -1 -2 -0 4 7 2 2 1 1 2 3 2 2 4 6 5 3 4 6 10 10 8 7 7 7 9 7 7 6 6 5 5 5 5 6
4 4 4 4 4 2 2 2 2 2 2 2 1 1 1 1 0 3 4 1 1 -0 4 6 7 3 2 2 3 4 3 3 4 5 6 4 5 5 7 11 6 6 7 6 6 6 8 8 8 6 6 6 5 5
4 4 4 4 4 2 2 2 2 2 1 1 1 2 1 1 2 2 0 3 2 2 3 8 6 6 2 6 7 5 6 5 5 5 5 6 5 5 10 6 5 5 6 6 6 6 7 7 7 8 7 7 7 7
4 3 4 4 4 2 2 2 2 2 2 1 1 1 1 2 3 2 2 2 -0 2 7 7 9 8 3 6 5 6 6 9 5 6 6 5 7 12 7 6 5 4 5 5 6 6 7 8 9 9 9 9 9 8
4 4 4 4 3 2 2 2 2 2 1 1 1 3 5 2 2 2 2 4 4 4 4 8 4 7 4 6 8 7 7 9 11 8 4 7 9 5 4 3 3 4 3 4 6 7 7 8 9 10 10 9 9 9
4 4 4 5 3 2 2 2 2 2 1 0 3 4 2 2 2 3 7 7 6 8 6 6 5 6 3 7 8 6 9 8 11 8 7 8 9 6 3 3 2 2 3 3 4 4 5 6 7 8 8 8 9 9
4 4 5 4 2 2 2 3 2 1 -0 1 1 -0 1 4 5 7 7 6 7 8 7 7 6 5 3 3 7 7 10 8 12 5 7 13 7 4 4 3 3 2 2 2 3 4 4 4 6 6 7 7 8 8
4 4 5 3 2 2 2 3 3 1 1 -0 2 5 6 6 11 9 10 8 10 8 6 7 8 5 4 4 7 8 11 12 6 9 13 8 5 4 3 3 2 2 2 2 3 3 3 4 3 5 6 6 7 7
4 5 3 3 3 2 2 3 3 2 1 4 6 12 8 8 7 9 9 7 5 5 5 6 7 7 7 7 7 11 8 6 9 13 11 7 5 3 3 2 2 3 2 2 2 2 3 3 4 3 4 5 6 6
4 4 3 3 2 2 2 2 3 -0 2 5 4 12 7 6 6 5 5 6 4 3 5 6 6 7 8 9 7 7 8 11 10 9 6 5 3 3 3 2 2 2 2 2 2 2 2 3 4 4 3 4 5 5
4 4 1 3 2 2 2 2 2 -0 2 4 5 6 5 6 6 5 5 5 2 2 4 4 7 8 8 7 9 9 10 11 9 6 5 3 3 3 3 2 2 2 2 2 2 2 2 2 3 3 3 3 3 4
4 -1 3 2 2 2 2 0 1 3 4 5 6 5 6 5 6 6 4 4 2 4 6 5 9 9 5 8 9 7 9 7 5 4 3 3 3 2 2 2 2 2 2 2 1 1 2 2 2 2 3 3 3 3
0 1 3 3 1 2 -0 0 2 4 6 5 7 5 4 4 4 4 3 3 3 4 3 7 4 9 11 10 9 6 5 4 3 3 3 2 2 1 2 2 2 1 1 2 2 1 1 2 2 3 2 2 3 3
2 2 3 3 2 1 2 2 2 6 5 5 4 4 4 4 2 2 2 2 2 2 3 4 8 8 8 6 5 4 4 4 4 3 3 2 1 1 1 1 2 2 1 1 2 2 2 1 2 2 3 2 4 3
3 3 4 4 4 2 4 3 1 4 6 4 5 4 4 3 3 2 2 3 3 3 5 6 6 5 5 3 2 3 3 2 3 3 3 3 2 2 2 1 2 1 2 2 2 4 2 1 1 2 2 2 3 3
4 2 1 1 1 1 3 3 4 3 3 5 4 4 3 3 3 3 3 3 3 4 5 3 3 3 2 2 2 2 1 2 3 3 3 3 2 2 1 1 1 2 2 2 2 2 2 2 2 1 1 2 2 3
-0 1 -0 0 2 2 3 1 3 3 3 4 4 4 5 4 4 4 3 4 4 4 3 3 3 2 2 2 2 1 1 1 1 2 5 4 3 2 2 2 2 2 2 2 2 1 2 1 1 1 1 1 2 2
3 1 1 2 4 6 7 1 5 4 6 5 3 5 4 5 3 2 5 3 3 2 1 2 1 1 2 1 1 1 1 1 2 2 1 2 2 1 1 1 1 2 2 2 1 1 1 2 1 1 1 0 2 2
3 2 4 4 5 8 3 5 3 3 4 5 5 7 6 5 3 4 6 4 3 1 2 1 2 2 2 2 3 2 2 1 2 1 1 2 3 2 2 1 1 1 1 0 1 1 1 1 2 -0 1 1 1 2
7 7 6 11 4 6 6 6 6 5 7 6 7 6 5 3 5 5 6 4 3 2 1 1 2 2 3 3 2 2 1 2 3 3 2 1 1 2 2 2 2 2 1 1 1 1 1 1 1 1 0 1 1 1
10 5 9 6 5 6 5 7 7 7 6 7 6 4 3 5 7 8 5 4 3 2 2 2 3 2 2 2 3 3 3 2 2 3 3 2 3 3 3 3 3 3 1 1 1 2 1 1 1 1 1 1 3 2
9 6 4 2 3 3 5 4 4 5 7 7 5 6 5 8 8 5 3 1 2 2 0 0 1 2 3 3 2 2 2 2 2 3 2 3 3 3 3 3 4 2 1 1 1 1 1 1 1 1 1 1 1 1
4 4 6 5 5 3 6 6 6 7 5 4 4 8 7 7 6 3 2 1 1 0 0 1 1 2 2 2 2 2 2 2 2 3 3 3 3 2 2 3 2 5 2 1 1 1 1 1 1 1 2 2 1 1
5 4 4 6 5 5 6 6 6 3 2 3 5 6 5 3 2 2 2 1 1 1 2 2 2 2 2 2 2 2 2 2 4 5 5 5 5 4 2 2 3 3 3 2 7 4 2 2 2 2 2 2 1 2
5 3 5 5 6 7 5 3 4 3 2 2 2 3 3 2 1 0 1 2 2 2 2 2 2 1 2 2 4 3 2 2 2 3 4 5 4 3 2 2 2 3 3 3 3 3 5 3 3 2 3 3 3 2
3 4 5 5 6 4 3 1 1 2 2 3 2 4 3 3 2 2 2 2 1 2 3 3 3 2 2 3 3 4 4 3 3 3 3 3 3 3 2 1 1 2 2 3 3 3 4 3 3 3 4 4 4 4
4 5 5 6 6 3 2 3 3 4 4 4 4 3 3 3 4 3 2 2 2 3 4 3 3 4 3 3 2 3 5 3 3 3 3 3 3 2 2 2 2 2 2 2 2 3 3 4 4 4 4 5 5 5
4 4 4 4 5 6 4 4 5 5 4 5 4 4 4 4 5 3 2 2 3 3 4 3 3 3 3 3 3 3 4 3 6 8 8 8 9 7 4 2 2 2 3 2 2 3 3 4 4 4 5 5 5 5